FREGAT RB/CLUSTER 2

Satellite information

Favourite Embed

Satellite Type and Status

PAYLOADIN ORBIT

Key statistics

Satellite FREGAT RB/CLUSTER 2 at a glance.

Uptime

9181

Days in orbit

Revolutions

≈ 4.6

Per day

Orbit

HEO

HEO

Inclination

65.1

Latest

Satellite identification and parameters

Extended collection of information and parameters for FREGAT RB/CLUSTER 2.

Object identification

Identified? True

Debris? False

Object name: FREGAT RB/CLUSTER 2

International designator: 2000-015A

Object number (NORAD): 26106

Object ID (CCSDS): 26106

Country: COMMONWEALTH OF INDEPENDENT STATES (CIS)

Current information (Y/N): Y

RCS size: LARGE

Orbital parameters

Period: 312.2 minutes

Inclination: 65.1052 deg

SMA: 15244.573 km

Apoapsis: 17228.647 km

Periapsis: 504.228 km

RAAN: 291.571 deg

Eccentricy: 0.5485368

Argument of periapsis: 286.3902 deg

Mean anomaly: 22.1454 deg

Mean motion: 4.61243104 rev/day

Mean motion (dot): -0.00000056 rev/day2

B* drag term: 0.000071613 1/REarth

Two-line elements (TLE)

Creation date: May 7, 2025, 10:26 p.m.

Reference frame: TEME

Reference center: EARTH

Epoch: May 7, 2025, 5:22 p.m. UTC

TLE line 0: 0 FREGAT RB/CLUSTER 2

TLE line 1: 1 26106U 00015A 25127.72364323 -.00000056 00000-0 71613-4 0 9992

TLE line 2: 2 26106 65.1052 291.5710 5485368 286.3902 22.1454 4.61243104419579

Live tracking on map

Real-time ground track for satellite FREGAT RB/CLUSTER 2.

In-orbit conjunctions

There are no conjunctions computed for FREGAT RB/CLUSTER 2, at the moment. Check back to stay up to date, as we update our databases every day.

Go to all conjunctions

Associated space launch

Dumsat (Dummy Satellite) consisted of a mass dummy representing the mass properties of two Cluster satellites fixed to the Fregat upper stage.

FREGAT RB/CLUSTER 2 was lifted into orbit during the mission ‘Soyuz-U-PVB | Dumsat’, on board a Soyuz-U-PVB space rocket.

The launch took place on March 20, 2000, 6:28 p.m. from 31/6.

For more information about the launch, click the button.

Launch to space Soyuz-U-PVB | Dumsat
Soyuz-U-PVB | Dumsat

Agency: N/A

Status: Launch Successful

Launch date: March 20, 2000, 6:28 p.m. UTC

Rocket: Soyuz-U-PVB

Launch pad: 31/6

Location: Baikonur Cosmodrome, Republic of Kazakhstan

...

Latest news about this satellite

There are no fresh news available about this satellite. Check back as we update our databases every day.


Newsletter sign-up

Weekly statistics, charts and insights to help you stay on top of the space industry.